Regional Weather Roundup
Issued by NWS Charleston, SC

Current Version | Previous Version | Text Only | Print | Product List | Glossary Off
Versions: 1 2 3 4 5 6 7 8 9 10 11 12 13 14 15 16 17 18 19 20 21 22 23 24 25 26 27 28 29 30 31 32 33 34 35 36 37 38 39 40 41 42 43 44 45 46 47 48 49 50

714
ASUS42 KCHS 280827
RWRCHS

REGIONAL WEATHER ROUNDUP
NATIONAL WEATHER SERVICE CHARLESTON SC
400 AM EDT TUE MAR 28 2017

NOTE: "FAIR" INDICATES FEW OR NO CLOUDS BELOW 12,000 FEET WITH NO
SIGNIFICANT WEATHER AND/OR OBSTRUCTIONS TO VISIBILITY.

NOT ALL STATIONS ARE QUALITY CONTROLLED. USE DATA WITH CAUTION...
ESPECIALLY DEWPOINT OBSERVATIONS.

SCZ027-030-031-034>040-042>050-280900-
...SOUTHEAST SOUTH CAROLINA...

CITY           SKY/WX    TMP DP  RH WIND       PRES   REMARKS
N CHARLESTON   PTCLDY    61  58  90 SW5       30.00F
WATERFRONT PRK   N/A     66  62  87 VRB3      29.99F
JOHNS ISLAND   FAIR      66  61  82 SW6       30.01S
PINOPOLIS        N/A    N/A N/A N/A VRB2      29.90F
MONCKS CORNER  FAIR      59  57  94 CALM      30.00S
SUMMERVILLE    PTSUNNY   61  59  94 CALM      30.01S
BEAUFORT MCAS  CLOUDY    67  63  87 SW7       30.00F
BEAUFORT ARPT  CLOUDY    66  61  82 SW5       30.00S
HILTON HEAD IS PTCLDY    68  63  83 S8        30.02S
WALTERBORO     CLOUDY    61  59  94 CALM      30.01F
ALLENDALE      CLOUDY    64  59  82 SE5       29.98F

...SOUTHERN MIDLANDS AND PEE DEE...

CITY           SKY/WX    TMP DP  RH WIND       PRES   REMARKS
GEORGETOWN     FAIR      61  61 100 S7        29.98F
KINGSTREE      PTSUNNY   59  55  88 CALM      29.99F
ORANGEBURG     CLOUDY    63  59  87 S8        29.99F
BARNWELL       FAIR      66  59  77 S7        29.98F
AIKEN          PTSUNNY   63  55  77 S8        29.99F
MANNING        FAIR      63  59  88 S3        29.99F
COLUMBIA       CLOUDY    66  57  72 S7        29.96F
SUMTER         PTCLDY    63  57  82 S7        29.96F
FLORENCE       CLEAR     61  59  93 S7        29.99S
MYRTLE BEACH   PTCLDY    65  60  84 W5        30.01S
N MYRTLE BEACH CLOUDY    66  61  84 SW8       29.99S

$$

GAZ063-065-086>088-099>101-113>116-118-119-134>141-150-280900-
...SOUTHEAST GEORGIA...

CITY           SKY/WX    TMP DP  RH WIND       PRES   REMARKS
SAVANNAH ARPT  MOCLDY    66  60  81 SW8       30.01F
HUNTER AAF     CLOUDY    67  64  92 CALM      29.99F
FORT STEWART   CLOUDY    67  59  76 SW6       29.99F
STATESBORO     MOCLDY    66  60  81 S7        30.00S
SYLVANIA       MOSUNNY  N/A N/A N/A CALM      30.01S
CLAXTON        FAIR     N/A N/A N/A CALM      30.01S

...CSRA...CENTRAL AND FAR SOUTHEAST GEORGIA...

CITY           SKY/WX    TMP DP  RH WIND       PRES   REMARKS
THOMSON        CLOUDY    65  60  83 SW5       30.01S
AUGUSTA-BUSH   CLOUDY    69  56  62 S7        29.96F
AUGUSTA-DANIEL CLOUDY    68  54  60 S9        29.97F
SWAINSBORO     FAIR      63  57  82 S3        30.00F
VIDALIA        CLEAR     64  59  82 S5        30.01S
EASTMAN        FAIR      61  61 100 S3        30.03S
HAZLEHURST     FAIR      65  61  85 S3        30.00F
ALMA           PTCLDY    64  58  80 S3        30.02R
WAYCROSS       CLEAR     64  62  91 S6        30.02R
JESUP          CLOUDY    66  59  77 SW3       30.03R
BAXLEY         FAIR      63  63 100 CALM      30.01S
BRUNSWICK      CLOUDY    68  64  88 SW5       30.03S
SAINT SIMONS   CLOUDY    67  62  84 SW5       30.02S

$$

SCZ027-028-034-036>038-045-046-048>050-GAZ119-141-280900-
...LAKE AND SUPPLEMENTAL COASTAL OBSERVATIONS...

STATION/POSITION TIME  TEMP    WIND        PRES    WAVE   SWELL
                       AIR SEA DIR/SP/G            HT/PER HT/PER/DIR
                 (UTC) (F)     (DEG/KT/KT) (MB)    (FT/S) (FT/S/D)
WINYAH BAY       0745   65     240/  3     1016.0S
LAKE MURRAY      0820   64     220/  8/ 11 1013.9
ACE BASIN NERRS  0730   65        CALM     1016.0S
FORT PULASKI     0800   66 64  230/  5/  8 1016.3
SAPELO ISLAND    0800   66     200/  5     1016.0

$$

ANZ835-935-AMZ111-154-330-350-352-354-370-450-454-472-280900-
...C-MAN AND BUOY OBSERVATIONS...

STATION/POSITION TIME  TEMP    WIND        PRES    WAVE   SWELL
                       AIR SEA DIR/SP/G            HT/PER HT/PER/DIR
                 (UTC) (F)     (DEG/KT/KT) (MB)    (FT/S) (FT/S/D)
BUOY 41004       0750   72 70  200/ 12/ 14 1015.7F   5/10   5/130/10
BUOY 41008       0750   64 63  210/  6/  6 1016.3F   4/ 9   3/ 90/ 9
FOLLY BEACH CMAN 0800   65     200/  6/  7 1016.4F
CAPERS NEARSHORE 0708   65     200/  8/ 10 1016.1F
FRIPP NEARSHORE  0708   65 63  210/  8/ 10 1016.2F


STATION/POSITION TIME  TEMP    WIND        PRES    WAVE   SWELL
                       AIR SEA DIR/SP/G            HT/PER HT/PER/DIR
                 (UTC) (F)     (DEG/KT/KT) (MB)    (FT/S) (FT/S/D)
5E ST. MARYS GA  0800      65                N/A     3/11   2/110/11
FRYING PAN BUOY  0810   72 75  190/ 16/ 21 1015.3
BUOY 41025       0750   71 74  220/ 17/ 19 1015.4F   5/10   5/150/10
CAPE LOOKOUT NC  0800   66     210/  8/  9 1015.1F
BUOY 41002       0750   67 72  140/  4/  6 1016.7F   6/10   5/100/10
BUOY 41010       NOT AVBL
ST AUGUSTINE FL  0800   63 70  260/  5/  6 1017.6F


$$




USA.gov is the U.S. government's official web portal to all federal, state and local government web resources and services.